Regional Weather Roundup
Issued by NWS

Home | Current Version | Previous Version | Text Only | Print | Product List | Glossary On
Versions: 1 2 3 4 5 6 7 8 9 10 11 12 13 14 15 16 17 18 19 20 21 22 23 24 25 26 27 28 29 30 31 32 33 34 35 36 37 38 39 40 41 42 43 44 45 46 47 48 49 50
000
ASHW40 PHFO 180232
RWRHI

WEATHER ROUNDUP FOR HAWAII
NATIONAL WEATHER SERVICE HONOLULU HI
400 PM HST TUE OCT 17 2017

THIS IS AN AUTOMATED REPORT THAT HAS NOT BEEN QUALITY CONTROLLED.

NOTE..."FAIR" INDICATES FEW OR NO CLOUDS BELOW 12,000 FEET WITH NO
SIGNIFICANT WEATHER AND/OR OBSTRUCTIONS TO VISIBILITY.

* - THESE SITES REPORT LIMITED FIELDS
# - BUOY DATA PROVIDED BY PACIFIC ISLANDS OCEAN OBSERVING SYSTEM.

HIZ001>004-180300-
KAUAI-NIIHAU-

CITY           SKY/WX    TMP DP  RH WIND       PRES   REMARKS
LIHUE APT      CLOUDY    81  67  62 NE22G31   30.06S
PORT ALLEN*      N/A     82 N/A N/A NE25G37     N/A
POIPU*           N/A     81 N/A N/A NE13G29     N/A
PRINCEVILLE*     N/A     79 N/A N/A E13G23      N/A
KOKOLE POINT*  NOT AVBL
MOLOAA DAIRY*    N/A     81  68  65 E5G16       N/A
WAIMEA HTS*    NOT AVBL
PUU OPAE*      NOT AVBL
PUU LUA*       NOT AVBL
MAKAHA RIDGE*    N/A     79  61  53 NE3G18      N/A
$$

HIZ005>011-180300-
OAHU-

CITY           SKY/WX    TMP DP  RH WIND       PRES   REMARKS
HONOLULU       PTSUNNY   82  61  48 E22G30    30.01S
KALAELOA       CLOUDY    82  62  50 E10G23    30.02R
KANEOHE MCB    PTSUNNY   83  66  56 NE17G25   30.00F
WHEELER FIELD  FAIR      79  62  56 NE18      30.02S
BELLOWS*         N/A    N/A N/A N/A NE26        N/A
KAHUKU*          N/A    N/A N/A N/A NE10G20     N/A
WHEELER*       NOT AVBL
WAIANAE HARBOR NOT AVBL
DILLINGHAM*      N/A     84  72  65 SW10G25     N/A
KAHUKU TRN*      N/A     79  63  57 W16G30      N/A
KAWAILOA*        N/A     75  63  64 E15G30      N/A
KII*             N/A     81  66  61 NE20G35     N/A
MAKUA RANGE*     N/A     82  63  51 W13G32      N/A
OAHU FOREST NW NOT AVBL
SCHOFIELD BRK*   N/A     75  61  60 MISG        N/A
SCHOFIELD S*   NOT AVBL
WAIANAE VLY*   NOT AVBL
KUAOKALA*      NOT AVBL
HONOULIUULI*   NOT AVBL
MOKUOLOE IS*   NOT AVBL
PALEHUA*       NOT AVBL
WAIAWA PHB*    NOT AVBL
$$

HIZ012>013-180300-
MOLOKAI-

CITY           SKY/WX    TMP DP  RH WIND       PRES   REMARKS
MOLOKAI AIRPT  MOSUNNY   81  65  58 NE20G33   30.02S
KALAUPAPA      NOT AVBL
MAKAPULAPAI*     N/A     81  68  65 E22G36      N/A
MOLOKAI 1*     NOT AVBL
PUU ALII*        N/A     60  58  94 N5G22       N/A
$$

HIZ016-180300-
KAHOOLAWE-

CITY           SKY/WX    TMP DP  RH WIND       PRES   REMARKS
KAHOOLAWE*     NOT AVBL
HAKIOAWA*        N/A     76  62  60 MISG      30.41R
HONOKANAIA*      N/A     85  65  50 NE16G37   29.91S
KANELOA*         N/A     81  64  57 E18G46    30.02F
KEALIALALO*    NOT AVBL
LUA MAKIKA*    NOT AVBL
$$

HIZ014>015-180300-
LANAI-

CITY           SKY/WX    TMP DP  RH WIND       PRES   REMARKS
LANAI CITY     PTSUNNY   76  62  62 E24G35    30.02S
LANAI 1*       NOT AVBL
$$

HIZ017>028-180300-
MAUI-

CITY           SKY/WX    TMP DP  RH WIND       PRES   REMARKS
KAHULUI        MOSUNNY   83  66  56 NE24G30   30.00S
KAPALUA-W MAUI MOSUNNY   81  63  54 NE21G38   30.00S
HANA AIRPORT   NOT AVBL
HANA*            N/A     79 N/A N/A NE13G18     N/A
HALEAKALA SUMM   N/A     45  21  39 NE26        N/A
MAALAEA BAY*     N/A     82 N/A N/A NE25G40     N/A
HALEAKALA*     NOT AVBL
KAUPO GAP*     NOT AVBL
KULA 1*          N/A     55  54  96 NW3G10      N/A
$$

HIZ023>026-180300-
BIG ISLAND OF HAWAII COAST AND LOWER SLOPES-

CITY           SKY/WX    TMP DP  RH WIND       PRES   REMARKS
KAILUA KONA    PTSUNNY   83  64  52 S12       29.91R
HILO           CLOUDY    79  66  64 NE10      30.01S
HONOKAA*         N/A     73 N/A N/A VRB1        N/A
KAWAIHAE MWT*    N/A     84 N/A N/A E23G47      N/A
KAWAIHAE*        N/A     84 N/A N/A NE26G41   29.87F
SOUTH POINT*     N/A     75 N/A N/A N26G38      N/A
UPOLU AIRPORT* NOT AVBL
KAMUELA*         N/A     77  64  65 NE12      30.06
HAKALAU*         N/A     53  52  97 N6G13       N/A
KALOKO-HONOKO*   N/A     82  64  54 S6        29.91S
PALI 2*          N/A     66  57  72 S21G35      N/A
KEALAKOMO*       N/A     79  66  65 NE21G35     N/A
KAUPULEHU*     NOT AVBL
KAPAPALA*        N/A     76  57  51 NE15G36     N/A
LOWER KAHUKU*    N/A    N/A N/A N/A E3G15       N/A
PUHE CS*         N/A     82  55  39 E20G44      N/A
PUHO CS*         N/A     85  65  50 SW3         N/A
PTA KEAMUKU*     N/A     68  54  60 NE33G49     N/A
WAIKOLOA*      NOT AVBL
$$

HIZ027>028-180300-
BIG ISLAND OF HAWAII INTERIOR AND SUMMMITS-

CITY           SKY/WX    TMP DP  RH WIND       PRES   REMARKS
BRADSHAW FIELD CLOUDY    63  49  59 S10G18    30.25S
MK VISITOR CEN   N/A     57  41  54 W7          N/A
MAUNA KEA*       N/A     43   3  19 N21         N/A
MAUNA LOA*       N/A     55   1  11 MISG        N/A
MAUNA LOA 1*   NOT AVBL
PTA KIPUKA*      N/A     75  50  41 W16G26      N/A
PTA RANGE 17*    N/A     64  48  55 NW16G29     N/A
PTA WEST*        N/A     75  57  53 W12         N/A
NENE CABIN*      N/A     54  54 100 SE3G12      N/A
AHUMOA*        NOT AVBL
PTA PORTABLE*  NOT AVBL
PUU MALI*        N/A     57  46  67 E20G36      N/A
$$

HIC003-180300-
NORTHWEST ISLANDS-

CITY           SKY/WX    TMP DP  RH WIND       PRES   REMARKS
MIDWAY ISLAND  CLOUDY    82  73  74 E21       30.17S
MIDWAY NOS*      N/A     79 N/A N/A MISG      30.16S
FRENCH FRIGATE NOT AVBL
$$

PHZ110>124-180-180300-
BUOY REPORTS

STATION/POSITION TIME  TEMP    WIND        PRES    WAVE   SWELL
                       AIR SEA DIR/SP/G            HT/PER HT/DIR
                 (UTC) (F)     (DEG/KT/KT) (MB)    (FT/S) (FT/D)
BUOY 51001       0210   77 81   80/ 21/ 27 1019.4
BUOY 51101       0150   79 81   60/ 21/ 25 1019.2F  11/ 9   7/ 90
BUOY 51100       NOT AVBL
BUOY 51002       0210   80 80   70/ 21/ 27 1012.3
BUOY 51003       0150   81 82   60/ 21/ 25 1013.5F  11/ 9   8/ 80
BUOY 51004       0210   79 80   60/ 19/ 23 1013.0
WAIMEA BAY#      0202      78                N/A     7/ 8   2/330
MOKAPU POINT#    0134      81                N/A    10/ 8   3/ 60
LANAI#           NOT AVBL
BARBERS PT 2#    NOT AVBL
PAUWELA#         NOT AVBL
HILO#            0157      80                N/A     8/ 9   2/ 70
KANEOHE BAY#     NOT AVBL
KANEOHE BAY 2#   NOT AVBL
HANALEI#         0152      81                N/A    10/ 9   3/ 40
KAHULUI HARBOR   0200   79 79   50/ 21/ 26 1016.3
HONOLULU HARBOR  0200   80 80   50/  5/ 10 1016.9
PEARL HARBOR#    0130      80                N/A     4/14   2/160
KILO NALU        NOT AVBL
HILO HARBOR      0200   79 78   30/ 15/ 19 1016.0
MOKUOLOE         0136   79 80   70/ 17/ 21 1016.9S
NAWILIWILI       0200   79      50/ 16/ 24 1017.4
WHOTS BUOY       NOT AVBL
BUOY 51028       NOT AVBL
$$

......................KEY........................................
  SKY/WX - SKY CONDITIONS/PRESENT WEATHER
  TMP    - TEMPERATURE IN FAHRENHEIT
  DWPT   - DEWPOINT IN FAHRENHEIT
  RH     - RELATIVE HUMIDITY IN PERCENT
  WIND   - DIRECTION AND SPEED /MPH FOR ISLANDS...KTS FOR BUOYS/
  PRES   - MEAN SEA LEVEL PRESSURE IN INCHES OF HG
  VSB    - VISIBILITY IN MILES
  HX     - HEAT INDEX
  WCI    - WIND CHILL INDEX
  VRB    - VARIABLE WIND DIRECTION
  N/A    - NOT AVAILABLE



USA.gov is the U.S. government's official web portal to all federal, state and local government web resources and services.